This is the latest recevied weather packets stored in our database for station/object WA6OOO. If no packets are shown the sender has not sent any weather packets the latest 10 day(s).
| Time | Temp. | Humidity | Pressure | Rain* | Wind** | Luminosity | Snow |
|---|---|---|---|---|---|---|---|
| 1777234961 | 17.22° C | 57% | 1017.1 hPa | 0 mm | - | 790 W/m² | - |
| 1777234657 | 17.22° C | 60% | 1017 hPa | 0 mm | - | 791 W/m² | - |
| 1777234352 | 17.78° C | 61% | 1017.2 hPa | 0 mm | - | 790 W/m² | - |
| 1777234049 | 17.78° C | 58% | 1016.9 hPa | 0 mm | - | 796 W/m² | - |
| 1777233745 | 17.78° C | 55% | 1017 hPa | 0 mm | - | 807 W/m² | - |
| 1777233441 | 17.22° C | 57% | 1016.9 hPa | 0 mm | - | 803 W/m² | - |
| 1777233140 | 17.78° C | 58% | 1017 hPa | 0 mm | - | 792 W/m² | - |
| 1777232837 | 17.22° C | 57% | 1017.1 hPa | 0 mm | - | 785 W/m² | - |
| 1777232535 | 17.22° C | 60% | 1016.9 hPa | 0 mm | - | 779 W/m² | - |
| 1777232234 | 16.67° C | 60% | 1016.9 hPa | 0 mm | - | 769 W/m² | - |
| 1777231929 | 17.22° C | 61% | 1017 hPa | 0 mm | - | 782 W/m² | - |
| 1777231626 | 17.22° C | 61% | 1017 hPa | 0 mm | - | 778 W/m² | - |
| 1777231323 | 17.22° C | 61% | 1016.8 hPa | 0 mm | - | 776 W/m² | - |
| 1777231018 | 17.22° C | 60% | 1016.7 hPa | 0 mm | - | 773 W/m² | - |
| 1777230715 | 16.67° C | 57% | 1017.1 hPa | 0 mm | - | 772 W/m² | - |
| 1777230410 | 17.22° C | 56% | 1017 hPa | 0 mm | - | 770 W/m² | - |
| 1777230106 | 16.67° C | 59% | 1016.9 hPa | 0 mm | - | 768 W/m² | - |
| 1777229803 | 16.67° C | 62% | 1016.9 hPa | 0 mm | - | 764 W/m² | - |
| 1777229500 | 16.67° C | 61% | 1016.9 hPa | 0 mm | - | 760 W/m² | - |
| 1777229197 | 17.22° C | 62% | 1016.7 hPa | 0 mm | - | 757 W/m² | - |
| 1777228894 | 17.22° C | 62% | 1016.6 hPa | 0 mm | - | 754 W/m² | - |
| 1777228590 | 17.22° C | 60% | 1016.7 hPa | 0 mm | - | 747 W/m² | - |
| 1777228286 | 17.22° C | 61% | 1016.7 hPa | 0 mm | - | 738 W/m² | - |
| 1777227986 | 17.22° C | 62% | 1016.7 hPa | 0 mm | - | 732 W/m² | - |
| 1777227681 | 16.67° C | 63% | 1016.6 hPa | 0 mm | - | 726 W/m² | - |
* Rain latest hour (hover to see other rain measurements)
** Current wind speed in m/s (hover to see current wind gust speed)